Weather in Tripoli

Greece     37°30′36″N   22°22′20″E
temp.,
°C
wind,
m/s
gust,
m/s
humid.,
%
clouds,
%
prec.,
mm/h
press.,
hPa
HPBL,
m
11 may, tue
tue1100:00+11ne22645 0.0 101811
03:00+11nne22640 0.0 101715
06:00+10ne32600 0.0 101619
09:00+17ene22380 0.0 1016317
12:00+22e22240 0.0 10151345
15:00+25se12230 0.0 10132129
18:00+22w43405 0.0 10131104
21:00+13w11736 0.0 101410
12 may, wed
wed1200:00+12n11773 0.0 101411
03:00+11nw11770 0.0 101310
06:00+11nw11742 0.0 101210
09:00+18wsw2246100 0.0 1011388
12:00+22wsw563233 0.0 10111182
15:00+23w672843 0.0 10101499
18:00+20w67330 0.0 10091163
21:00+11w33700 0.0 101034
13 may, thu
thu1300:00+9wnw32870 0.0 101129
03:00+8w229457 0.0 101031
06:00+8wnw229538 0.0 101129
09:00+14w346647 0.0 1010458
12:00+20w563998 0.0 10101148
15:00+21w67320 0.0 10091315
18:00+18w67420 0.0 10101069
21:00+10w33937 0.0 101262
14 may, fri
fri1400:00+8w339962 0.0 101480
03:00+8w239747 0.0 101496
06:00+7w22942 0.0 101429
09:00+14w38550 0.0 1014739
12:00+19w68370 0.0 10151395
15:00+20w79340 0.0 10151515
18:00+18w68390 0.0 10151220
21:00+11w22780 0.0 101716
15 may, sat
sat1500:00+9nw22770 0.0 101713
03:00+10nw225426 0.0 101612
06:00+10nw1244100 0.0 101511
09:00+17wsw2236100 0.0 1015270
12:00+22wsw5830100 0.0 10141616
15:00+23wsw91227100 0.0 10131844
18:00+19wsw91435100 0.0 10121407
21:00+14wsw4105478 0.0 1011595